Location: *
(46.1866°S, 178.5290°W)
Time: 20:59:56
(UTC+00:00)

H-2A R/B - Pass Details

Date: 19 May 2021
Orbit: 501 x 538 km, 97.3° (Epoch: 12 March)

Event Time Altitude Azimuth Distance (km) Brightness Sun altitude
Rises 05:37:48 0° 172° (S) 2,709 6.1 -12.0°
Reaches altitude 10° 05:39:58 10° 176° (S) 1,804 5.3 -12.4°
Maximum altitude 05:43:47 55° 254° (WSW) 642 3.5 -13.0°
Drops below altitude 10° 05:47:30 10° 331° (NNW) 1,756 6.0 -13.6°
Sets 05:49:35 0° 335° (NNW) 2,629 6.9 -14.0°
